Location: Berlin
(52.5170°N, 13.3889°E)
Time: 12:38:42
(UTC+02:00)

LES 1 - Visible Passes

Search period start: 16 June 2025 00:00
Search period end: 26 June 2025 00:00
Orbit: 2779 x 2808 km, 32.1° (Epoch: 15 June)

Date Brightness Start Highest point End Pass type
(mag) Time Alt. Az. Time Alt. Az. Time Alt. Az.
16 Jun 10.6 00:49:36 10° SW 01:02:50 33° SSE 01:16:04 10° ESE visible
16 Jun 10.7 03:25:14 10° WSW 03:38:24 33° SSW 03:51:38 10° SE visible
16 Jun 10.8 22:34:13 10° SSW 22:45:04 22° SSE 22:55:55 10° ESE visible
17 Jun 10.5 01:06:52 10° SW 01:20:18 34° S 01:33:44 10° ESE visible
17 Jun 10.7 03:43:01 10° WSW 03:55:50 31° SSW 04:08:44 10° SE visible
17 Jun 10.8 22:50:39 10° SSW 23:02:24 26° SSE 23:14:09 10° ESE visible
18 Jun 10.5 01:24:16 10° WSW 01:37:46 35° S 01:51:19 10° ESE visible
18 Jun 10.7 23:07:22 10° SSW 23:19:47 28° SSE 23:32:11 10° ESE visible
19 Jun 10.5 01:41:45 10° WSW 01:55:15 35° S 02:08:48 10° SE visible
19 Jun 10.6 23:24:18 10° SW 23:37:11 31° SSE 23:50:03 10° ESE visible
20 Jun 10.6 01:59:20 10° WSW 02:12:44 34° S 02:26:10 10° SE visible
20 Jun 10.6 23:41:25 10° SW 23:54:37 33° SSE 00:07:50 10° ESE visible
21 Jun 10.6 02:17:01 10° WSW 02:30:12 33° SSW 02:43:25 10° SE visible
21 Jun 10.5 23:58:41 10° SW 00:12:05 34° S 00:25:30 10° ESE visible
22 Jun 10.6 02:34:49 10° WSW 02:47:38 31° SSW 03:00:30 10° SE visible
23 Jun 10.5 00:16:04 10° SW 00:29:34 35° S 00:43:05 10° ESE visible
23 Jun 10.7 02:52:42 10° WSW 03:05:02 28° SSW 03:17:26 10° SSE visible
23 Jun 10.8 21:59:12 10° SSW 22:11:34 28° SSE 22:23:56 10° ESE visible
24 Jun 10.5 00:33:33 10° WSW 00:47:03 35° S 01:00:33 10° SE visible
24 Jun 10.8 03:10:45 10° WSW 03:22:24 25° SSW 03:34:07 10° SSE visible
24 Jun 10.7 22:16:07 10° SW 22:28:59 31° SSE 22:41:49 10° ESE visible
25 Jun 10.5 00:51:08 10° WSW 01:04:31 34° S 01:17:56 10° SE visible
25 Jun 10.9 03:29:01 10° WSW 03:39:44 22° SSW 03:50:31 10° SSE visible
25 Jun 10.7 22:33:14 10° SW 22:46:25 33° SSE 22:59:36 10° ESE visible
